SL-14 R/B

基本信息
目录编号:
21034
目录名称:
SL-14 R/B
国际标识:
1990-114G
轨道中心:
EARTH
物体状态:
在轨
发射日期:
1990-12-22 UTC
国别:
俄罗斯(独联体) (CIS)
轨道信息
数据来源: 国际轨道数据
星历时间: 2026-09-10T22:36:39+0800
半长轴: 7819.549km
偏心率: 0.0039174
轨道倾角: 82.562°
近地点辐角: 185.595°
升交点赤经: 276.746°
平近点角: 294.199°
近地点: 1410.779km
远地点: 1472.045km
周期: 114.692分钟
每日圈数: 12.55539
详细信息
发射场:
PKMTR
轨道高度:
LEO
数据来源:
AOE Integration Group
参考系:
TEME
时间系统:
UTC
历元类型:
SGP4
2D轨道图
3D轨道图
轨道高度分析图
轨道倾角分析图
轨道综合分析图
查看轨道综合分析图